Weather History for KABQ - March, 2013

Change the Weather History Date:

Saturday, March 16, 2013

  Actual Average Record
Temperature  
Mean Temperature 60 °F 48 °F  
Max Temperature 73 °F 61 °F 78 °F (2011)
Min Temperature 46 °F 36 °F 12 °F (1913)
Degree Days  
Heating Degree Days 5 17  
Month to date heating degree days 221 296  
Since 1 July heating degree days 3419 3599  
Cooling Degree Days 0 0  
Month to date cooling degree days 0 0  
Year to date cooling degree days 0 0  
Growing Degree Days 10 (Base 50)    
Moisture  
Dew Point 20 °F    
Average Humidity 29    
Maximum Humidity 46    
Minimum Humidity 12    
Precipitation  
Precipitation 0.00 in 0.01 in 0.42 in (1998)
Month to date precipitation 0.16 0.28  
Year to date precipitation 0.51 1.14  
Snow  
Snow 0.00 in - - ()
Month to date snowfall T  
Since 1 July snowfall 3.5  
Snow Depth 0.00 in    
Sea Level Pressure  
Sea Level Pressure 29.78 in    
Wind  
Wind Speed 11 mph (South)    
Max Wind Speed 32 mph    
Max Gust Speed 38 mph    
Visibility 10 miles    
Events      
T = Trace of Precipitation, MM = Missing Value Source: NWS Daily Summary

Daily Weather History Graph

Daily Weather History Graph

Search for Another Location

Airport or City:

Trip Planner

Search our weather history database for the weather conditions in past years. The results will help you decide how hot, cold, wet, or windy it might be!

Date:

Astronomy

Mar. 16, 2013 Rise Set
Actual Time 7:15 AM MDT 7:15 PM MDT
Civil Twilight 6:50 AM MDT 7:40 PM MDT
Nautical Twilight 6:20 AM MDT 8:09 PM MDT
Astronomical Twilight 5:51 AM MDT 8:39 PM MDT
Moon 9:58 AM MDT (3/16) No Moon Set
Length of Visible Light 12h 50m
Length of Day
11h 59m
Waxing Crescent, 23% of the Moon is Illuminated
Mar 16
Waxing Crescent
Mar 19
First Quarter
Mar 27
Full
Apr 2
Last Quarter
Apr 10
New

Hourly Weather History & Observations

Time (MDT) Temp. Dew Point Humidity Pressure Visibility Wind Dir Wind Speed Gust Speed Precip Events Conditions
12:52 AM 51.1 °F 12.0 °F 21% 29.84 in 10.0 mi ESE 5.8 mph - N/A   Scattered Clouds
1:52 AM 50.0 °F 12.9 °F 23% 29.84 in 10.0 mi SE 5.8 mph - N/A   Partly Cloudy
2:52 AM 48.9 °F 12.9 °F 24% 29.83 in 10.0 mi SE 6.9 mph - N/A   Partly Cloudy
3:52 AM 50.0 °F 14.0 °F 24% 29.81 in 10.0 mi SE 5.8 mph - N/A   Scattered Clouds
4:52 AM 46.9 °F 15.1 °F 28% 29.81 in 10.0 mi SE 8.1 mph - N/A   Partly Cloudy
5:52 AM 48.0 °F 16.0 °F 28% 29.81 in 10.0 mi SSE 9.2 mph - N/A   Scattered Clouds
6:52 AM 48.0 °F 17.1 °F 29% 29.81 in 10.0 mi SSE 6.9 mph - N/A   Scattered Clouds
7:52 AM 50.0 °F 17.1 °F 27% 29.82 in 10.0 mi Calm Calm - N/A   Mostly Cloudy
8:52 AM 55.4 °F 17.6 °F 23% 29.99 in 10.0 mi SSE 6.9 mph - N/A   Mostly Cloudy
9:52 AM 60.1 °F 18.0 °F 20% 29.83 in 10.0 mi SW 8.1 mph - N/A   Mostly Cloudy
10:52 AM 62.1 °F 19.0 °F 19% 29.83 in 10.0 mi South 6.9 mph - N/A   Mostly Cloudy
11:52 AM 64.9 °F 19.9 °F 18% 29.81 in 10.0 mi SW 5.8 mph - N/A   Mostly Cloudy
12:52 PM 70.0 °F 21.0 °F 16% 29.78 in 10.0 mi Variable 6.9 mph - N/A   Mostly Cloudy
1:52 PM 69.8 °F 19.4 °F 15% 29.92 in 10.0 mi SSW 13.8 mph 20.7 mph N/A   Mostly Cloudy
2:52 PM 69.1 °F 19.0 °F 15% 29.72 in 10.0 mi SSW 16.1 mph 21.9 mph N/A   Mostly Cloudy
3:52 PM 69.1 °F 17.1 °F 14% 29.69 in 10.0 mi SW 13.8 mph 19.6 mph N/A   Mostly Cloudy
4:52 PM 72.0 °F 17.1 °F 12% 29.66 in 10.0 mi WSW 15.0 mph 24.2 mph N/A   Mostly Cloudy
5:52 PM 72.0 °F 16.0 °F 12% 29.65 in 10.0 mi West 16.1 mph 21.9 mph N/A   Mostly Cloudy
6:52 PM 70.0 °F 16.0 °F 13% 29.65 in 10.0 mi WNW 17.3 mph - N/A   Mostly Cloudy
7:52 PM 64.0 °F 25.0 °F 23% 29.69 in 10.0 mi NNW 18.4 mph 26.5 mph N/A   Mostly Cloudy
8:52 PM 62.1 °F 28.0 °F 28% 29.71 in 10.0 mi North 13.8 mph - N/A   Mostly Cloudy
9:52 PM 62.1 °F 27.0 °F 26% 29.69 in 10.0 mi NE 13.8 mph - N/A   Mostly Cloudy
10:52 PM 55.0 °F 34.0 °F 45% 29.79 in 10.0 mi NNW 19.6 mph 38.0 mph N/A   Mostly Cloudy
11:52 PM 53.1 °F 33.1 °F 47% 29.79 in 10.0 mi North 12.7 mph 23.0 mph N/A   Mostly Cloudy